Location: Nowy Sacz
(49.6330°N, 20.7170°E)
Time: 17:35:43
(UTC+02:00)

Envisat - Visible Passes

Search period start: 21 September 2023 00:00
Search period end: 01 October 2023 00:00
Orbit: 763 x 764 km, 98.2° (Epoch: 20 September)

Date Brightness Start Highest point End Pass type
(mag) Time Alt. Az. Time Alt. Az. Time Alt. Az.
21 Sep 3.9 03:58:06 10° NNE 04:03:01 46° E 04:07:37 11° S visible
21 Sep 3.9 05:37:28 10° N 05:41:48 29° WNW 05:46:06 10° WSW visible
22 Sep 5.1 03:21:29 10° NE 03:25:32 23° E 03:29:31 10° SE visible
22 Sep 3.1 04:59:52 10° N 05:04:51 55° WNW 05:09:47 10° SW visible
23 Sep 5.8 02:46:19 10° ENE 02:47:49 11° E 02:49:18 10° ESE visible
23 Sep 3.1 04:22:35 10° NNE 04:27:41 75° ESE 04:32:18 13° S visible
24 Sep 4.3 03:45:38 10° NNE 03:50:20 37° E 03:54:34 12° SSE visible
24 Sep 3.7 05:24:42 10° N 05:29:18 35° WNW 05:33:52 10° SW visible
25 Sep 5.4 03:09:16 10° NE 03:12:47 19° E 03:16:16 10° SE visible
25 Sep 2.9 04:47:13 10° N 04:52:17 70° WNW 04:56:59 12° SSW visible
26 Sep 3.5 04:10:01 10° NNE 04:15:03 59° E 04:19:14 15° S visible
26 Sep 4.2 05:49:42 10° N 05:53:41 24° WNW 05:57:39 10° WSW visible
27 Sep 4.7 03:33:13 10° NNE 03:37:38 29° E 03:41:29 13° SSE visible
27 Sep 3.4 05:11:58 10° N 05:16:46 44° WNW 05:21:34 10° SW visible
28 Sep 5.6 02:57:13 10° NE 03:00:01 15° E 03:02:46 10° ESE visible
28 Sep 2.9 04:34:34 10° NNE 04:39:42 87° WNW 04:43:53 15° SSW visible
29 Sep 3.9 03:57:30 10° NNE 04:02:24 47° E 04:06:08 17° SSE visible
29 Sep 3.9 05:36:52 10° N 05:41:12 29° WNW 05:45:30 10° WSW visible
30 Sep 5.0 03:20:52 10° NE 03:24:55 23° E 03:28:22 12° SE visible
30 Sep 3.1 04:59:16 10° N 05:04:14 55° WNW 05:08:32 14° SW visible
